Content
SEND FEEDBACK

Daily
Averages
Monthly
Summary
United States of America

LINDSAY, CALIFORNIA


Home > North America > United States > California
Elevation: 130 meters     Latitude: 36 11N     Longitude: 119 03W

WEATHER
 
SELECT A DAY
Number of Records: 447,060;   Date Range: 1/1/95 - 7/29/14
 
SHARE

PRINT THIS DATA

[ ← Previous Day ]
WEATHER ALMANAC - 13 FEBRUARY, 2013
[ Next Day → ]
[ °F ]   °C
Weather ElementAverageHighLow
Temperature7.8 °C17 °C (2:15 pm)0 °C (5:15 am)
Dewpoint1.5 °C4 °C (12:15 pm)-3 °C (5:55 am)
Humidity66.9 %87 % (12:55 am)39 % (2:55 pm)
Barometer1025.7 hPa1028.1 hPa (8:15 am)1023.7 hPa (5:15 pm)
Wind Speed7.9 km/h13 km/h (5:15 am)
Weather ElementAverage
Visibility15.9 km
Wind DirectionSSE (162.4 °)

Weather ElementTotal
Precipitation---
Heating Degree Days9.8 (Base 18.3)
Averaged from 71 records on 13 February, 2013
WEATHER CONDITIONS BREAKOUT
WIND DIRECTION BREAKOUT
WEATHER BY HOUR - 13 FEBRUARY, 2013
[ °F ]   °C
Local TimeTemperatureDewpointHumidityBarometerVisibilityWind DirectionWind SpeedGust SpeedPrecipitationEventsConditions
12:35 AM3 °C0 °C81 %1027.4 hPa16.1 kmESE (110°)9.3 km/hClear
12:55 AM3 °C1 °C87 %1027.1 hPa16.1 kmEast (90°)7.4 km/hClear
1:15 AM4 °C0 °C75 %1027.1 hPa16.1 kmCalmClear
1:35 AM2 °C-1 °C81 %1027.1 hPa16.1 kmCalmClear
1:55 AM1 °C-2 °C81 %1027.1 hPa16.1 kmSouth (180°)5.6 km/hClear
2:15 AM1 °C-2 °C81 %1027.1 hPa16.1 kmCalmClear
2:35 AM1 °C-1 °C87 %1026.8 hPa16.1 kmCalmClear
2:55 AM1 °C-2 °C81 %1026.8 hPa16.1 kmSSE (150°)7.4 km/hClear
3:15 AM1 °C-2 °C81 %1026.8 hPa16.1 kmSSE (150°)7.4 km/hClear
3:35 AM1 °C-2 °C81 %1026.8 hPa16.1 kmSE (140°)7.4 km/hClear
3:55 AM1 °C-2 °C81 %1026.8 hPa16.1 kmSE (130°)7.4 km/hClear
4:15 AM1 °C-2 °C81 %1026.8 hPa16.1 kmSE (130°)11.1 km/hClear
4:35 AM1 °C-2 °C81 %1026.8 hPa16.1 kmSE (130°)11.1 km/hClear
4:55 AM1 °C-2 °C81 %1026.8 hPa16.1 kmESE (120°)11.1 km/hClear
5:15 AM0 °C-2 °C87 %1026.8 hPa16.1 kmSE (130°)13 km/hClear
5:35 AM1 °C-2 °C81 %1026.8 hPa16.1 kmSE (130°)11.1 km/hClear
5:55 AM0 °C-3 °C80 %1026.8 hPa16.1 kmSE (130°)11.1 km/hClear
6:15 AM0 °C-3 °C80 %1027.1 hPa16.1 kmSE (140°)7.4 km/hClear
6:35 AM1 °C-2 °C81 %1027.1 hPa16.1 kmSE (130°)7.4 km/hClear
6:55 AM1 °C-2 °C81 %1027.4 hPa16.1 kmCalmClear
7:15 AM1 °C-2 °C81 %1027.4 hPa16.1 kmCalmClear
7:35 AM1 °C-2 °C81 %1027.8 hPa16.1 kmSE (140°)5.6 km/hClear
7:55 AM3 °C1 °C87 %1027.8 hPa16.1 kmSE (140°)9.3 km/hClear
8:15 AM6 °C2 °C76 %1028.1 hPa16.1 kmSE (140°)5.6 km/hClear
8:35 AM7 °C2 °C71 %1027.8 hPa16.1 kmSSE (160°)9.3 km/hClear
8:55 AM8 °C2 °C66 %1028.1 hPa16.1 kmSouth (180°)9.3 km/hClear
9:15 AM9 °C2 °C62 %1028.1 hPa16.1 kmSouth (180°)9.3 km/hClear
9:35 AM10 °C2 °C58 %1028.1 hPa16.1 kmSSW (210°)11.1 km/hClear
9:55 AM11 °C3 °C58 %1027.8 hPa16.1 kmSouth (190°)11.1 km/hClear
10:15 AM11 °C2 °C54 %1027.8 hPa16.1 kmWSW (240°)9.3 km/hClear
10:35 AM12 °C3 °C54 %1027.8 hPa16.1 kmSouth (190°)7.4 km/hClear
10:55 AM12 °C2 °C51 %1027.8 hPa16.1 kmWSW (250°)5.6 km/hClear
11:15 AM13 °C3 °C51 %1027.4 hPa16.1 kmWSW (240°)7.4 km/hClear
11:35 AM13 °C3 °C51 %1027.4 hPa16.1 kmWest (280°)7.4 km/hClear
11:55 AM14 °C3 °C48 %1027.1 hPa16.1 kmWest (280°)11.1 km/hClear
12:15 PM14 °C4 °C51 %1026.4 hPa16.1 kmWNW (300°)5.6 km/hClear
12:35 PM15 °C3 °C45 %1026.1 hPa16.1 kmWest (260°)7.4 km/hClear
12:55 PM15 °C4 °C48 %1025.7 hPa16.1 kmCalmClear
1:15 PM15 °C3 °C45 %1025.4 hPa16.1 kmWSW (250°)11.1 km/hClear
1:35 PM16 °C3 °C42 %1025.1 hPa16.1 kmNNW (330°)9.3 km/hClear
1:55 PM16 °C3 °C42 %1025.1 hPa16.1 kmCalmClear
2:15 PM17 °C4 °C42 %1024.7 hPa16.1 kmNW (310°)7.4 km/hClear
2:35 PM16 °C3 °C42 %1024.7 hPa16.1 kmNW (310°)9.3 km/hClear
2:55 PM17 °C3 °C39 %1024.4 hPa16.1 kmWNW (300°)9.3 km/hClear
3:15 PM17 °C3 °C39 %1024 hPa16.1 kmNW (310°)13 km/hClear
3:35 PM17 °C3 °C39 %1024 hPa16.1 kmNW (310°)9.3 km/hClear
3:55 PM16 °C3 °C42 %1024 hPa16.1 kmWest (270°)11.1 km/hClear
4:15 PM16 °C3 °C42 %1024 hPa16.1 kmWest (280°)11.1 km/hClear
4:35 PM16 °C3 °C42 %1024 hPa16.1 kmWNW (290°)11.1 km/hClear
4:55 PM15 °C4 °C48 %1024 hPa16.1 kmWest (270°)9.3 km/hClear
5:15 PM14 °C4 °C51 %1023.7 hPa16.1 kmWest (270°)7.4 km/hClear
5:35 PM13 °C4 °C54 %1023.7 hPa14.5 kmWSW (250°)5.6 km/hClear
5:55 PM12 °C4 °C58 %1024 hPa14.5 kmWSW (240°)7.4 km/hClear
6:15 PM11 °C4 °C62 %1024 hPa16.1 kmSW (220°)9.3 km/hClear
6:35 PM9 °C4 °C71 %1024 hPa16.1 kmSW (220°)9.3 km/hClear
6:55 PM9 °C3 °C66 %1024 hPa16.1 kmSSW (210°)5.6 km/hClear
7:15 PM9 °C4 °C71 %1024 hPa16.1 kmESE (120°)7.4 km/hClear
7:35 PM7 °C3 °C76 %1024 hPa16.1 kmESE (110°)9.3 km/hClear
7:55 PM7 °C3 °C76 %1024 hPa16.1 kmEast (90°)5.6 km/hClear
8:15 PM7 °C3 °C76 %1024.4 hPa16.1 kmEast (100°)7.4 km/hClear
8:35 PM6 °C3 °C81 %1024.4 hPa16.1 kmEast (100°)7.4 km/hClear
8:55 PM6 °C3 °C81 %1024.4 hPa16.1 kmEast (100°)9.3 km/hClear
9:15 PM6 °C2 °C76 %1024.4 hPa12.9 kmEast (100°)7.4 km/hClear
9:35 PM6 °C2 °C76 %1024.4 hPa16.1 kmEast (100°)11.1 km/hClear
9:55 PM6 °C3 °C81 %1024.4 hPa16.1 kmESE (110°)13 km/hClear
10:15 PM6 °C3 °C81 %1024.4 hPa16.1 kmEast (100°)9.3 km/hClear
10:35 PM6 °C3 °C81 %1024.4 hPa16.1 kmEast (100°)9.3 km/hClear
10:55 PM6 °C2 °C76 %1024.4 hPa16.1 kmEast (100°)11.1 km/hClear
11:15 PM6 °C2 °C76 %1024.4 hPa16.1 kmEast (100°)9.3 km/hClear
11:35 PM6 °C2 °C76 %1024.4 hPa16.1 kmEast (90°)9.3 km/hClear
11:55 PM6 °C2 °C76 %1024 hPa16.1 kmEast (100°)9.3 km/hClear
Hourly data recorded from KPTV, located 0 kilometers away from Lindsay, California







STORIES FROM OUR PARTNERS